Powrót do katalogu

THORAD AGENA D DEB

AktywnyPO
NORAD 4752·DEBRIS·🇺🇸 United States

Wystrzelony Apr 8, 1970 z Vandenberg Space Force Base

Loading…

Następne Przeloty

TLE

Source: Space-Track
1  4752U 70025DA  26224.97168296  .00001549  00000-0  78519-3 0  9998
2  4752  99.8891  17.2954 0018987 289.1171  70.7945 14.17714362842129

Śledź THORAD AGENA D DEB w czasie rzeczywistym z AllMySat

Download on the App Store